Temperature
21 20 19 17 16 16 16 16 17 16 16 16 16 16 16 15 15 15 15 15 15 14 14 14 14 14 14 14 14 14 14 15 15 15 15 15 15 14 14 14 13 12 13
21 20 19 17 17 16 16 16 16 16 16 16 16 16 15 15 15 15 15 15 14 14 14 14 14 14 14 14 14 14 14 15 15 15 15 14 14 14 14 14 13 13 13
21 20 19 17 17 17 16 16 16 16 16 16 16 16 15 15 15 15 15 15 14 14 14 14 14 14 14 14 14 14 14 14 15 14 14 13 13 14 14 14 13 13 13
19 19 18 18 17 17 16 16 16 16 16 16 16 16 16 15 15 15 15 14 14 14 14 14 14 14 14 14 14 14 14 14 14 14 13 12 13 14 14 13 13 13 13
18 18 19 18 17 17 17 16 16 16 16 16 16 16 16 15 15 15 15 15 14 14 14 14 14 14 14 14 14 14 14 14 14 13 12 13 13 13 13 13 13 13 13
17 17 19 18 17 17 16 17 17 16 16 16 16 16 16 15 15 15 15 15 14 14 14 14 14 14 14 14 14 13 13 13 13 12 12 12 12 13 13 13 13 13 13
17 17 18 17 17 17 16 16 16 16 16 16 16 16 16 16 16 15 15 15 14 14 14 14 14 14 14 14 14 13 13 13 12 12 12 12 12 13 13 13 13 13 13
17 17 17 17 16 16 16 16 16 16 16 16 16 16 16 16 16 16 15 15 14 14 14 14 14 14 14 14 14 13 13 13 12 12 12 12 13 13 13 13 13 12 12
17 17 16 16 16 16 16 16 16 16 16 16 16 16 16 16 16 16 15 15 15 14 14 14 14 14 14 14 13 13 13 13 12 12 12 12 12 12 12 12 12 12 12
16 16 16 16 16 16 16 16 16 16 16 16 16 16 16 16 16 16 16 15 15 15 15 15 15 14 14 14 13 13 13 12 12 12 12 12 12 12 12 12 12 12 12
17 16 16 16 16 16 15 16 16 16 16 16 15 15 15 15 15 15 15 15 15 15 15 15 15 14 14 14 13 13 13 12 12 12 11 12 12 12 12 12 12 12 12
17 17 16 16 16 16 16 16 16 16 16 15 15 15 15 14 14 14 15 15 15 15 15 15 14 14 14 13 13 13 12 12 12 11 11 12 12 12 12 12 11 11 11
16 17 16 16 16 16 16 16 16 16 15 15 15 15 15 14 14 14 14 15 15 14 14 14 14 14 13 13 12 12 12 12 11 11 11 12 11 11 11 11 11 11 11
16 16 16 16 16 16 16 16 16 16 16 16 16 15 15 15 14 14 14 14 14 14 14 14 13 13 13 13 12 12 12 12 11 11 11 11 11 11 11 11 11 10 10
16 16 16 16 16 16 16 16 16 16 16 16 16 16 15 15 15 14 14 14 14 13 13 13 13 13 13 12 12 12 12 12 11 11 11 11 11 11 10 10 10 10 10
16 16 16 16 16 16 17 16 16 16 16 15 16 16 16 15 15 15 14 14 13 13 13 13 13 12 12 12 12 12 12 11 11 11 10 11 11 10 10 10 10 10 9
16 16 16 16 16 17 17 17 16 16 16 16 16 16 15 15 15 15 14 14 13 13 13 13 12 12 12 12 12 12 12 11 11 11 10 10 10 10 10 10 10 10 9
16 16 16 16 16 17 17 17 17 16 16 16 16 16 15 15 15 14 14 14 13 13 13 13 12 12 12 12 12 12 11 11 11 11 11 10 10 10 10 10 9 9 9
16 16 16 16 17 17 17 17 17 17 17 16 16 16 16 15 15 15 14 14 13 13 13 13 12 12 12 12 11 11 11 11 11 11 11 11 10 10 9 10 9 9 9
16 16 17 17 17 16 16 16 17 17 17 17 17 17 16 16 15 15 14 14 13 13 13 12 12 12 12 11 11 11 11 11 11 11 11 11 11 10 10 9 9 9 9
16 16 16 16 17 16 16 16 16 17 17 17 17 17 17 16 16 15 15 14 14 14 13 13 12 12 12 11 11 11 10 11 11 11 11 10 10 10 10 9 9 8 8
15 15 16 16 16 16 16 16 16 16 16 17 17 17 17 17 16 16 15 15 14 14 13 13 12 12 12 11 11 10 10 10 11 11 11 10 10 10 10 9 9 8 8
14 15 15 15 15 16 15 15 15 15 15 15 16 16 17 17 16 16 15 15 14 14 14 13 13 12 12 12 11 10 10 10 10 11 11 11 10 10 9 9 8 8 7
13 14 14 14 15 15 15 15 15 14 14 15 15 15 16 16 16 15 15 14 14 14 13 13 13 13 12 11 11 11 11 11 11 11 11 11 10 9 9 8 8 7 7
12 13 13 14 14 14 14 14 14 14 14 14 14 14 14 14 15 15 14 14 13 13 13 13 13 12 12 11 12 11 11 10 10 10 10 10 10 9 8 8 7 7 6
12 12 13 13 13 13 14 14 14 14 13 13 13 13 14 14 14 14 14 13 13 13 13 13 12 12 12 11 11 11 11 10 10 10 9 9 9 9 8 7 6 6 5
Wind_Speed
11 17 18 18 17 17 17 17 17 17 16 15 14 13 11 9 8 7 6 7 7 8 11 13 14 14 14 13 13 13 13 13 13 13 12 11 10 10 9 8 5 9 9
15 18 19 18 17 17 17 17 17 17 16 15 13 12 10 8 7 7 7 7 8 10 12 14 14 14 13 13 13 12 12 12 12 11 10 10 9 9 8 7 7 8 7
16 18 20 18 17 17 17 17 18 17 15 14 13 11 9 8 7 7 7 8 9 11 13 14 14 14 13 13 12 12 11 11 10 8 4 8 9 7 6 5 5 5 5
16 18 18 18 17 17 17 18 17 16 15 14 12 11 9 8 8 8 8 9 10 12 13 14 14 13 13 12 11 11 10 10 8 3 6 8 8 7 5 5 5 4 4
15 16 17 18 17 17 18 18 17 16 15 13 12 11 9 9 9 10 11 11 12 13 13 13 13 12 12 11 10 9 9 8 5 3 8 7 7 6 5 5 5 5 6
15 15 18 17 17 17 17 17 17 16 14 13 12 11 9 9 10 11 11 12 12 12 12 12 12 11 11 10 9 8 8 6 4 7 7 6 7 7 7 8 8 9 10
14 14 17 16 17 17 16 16 16 15 14 13 12 11 10 10 10 10 11 11 11 11 11 11 11 10 9 8 7 7 7 4 5 6 6 7 9 9 11 12 14 15 16
13 13 16 16 16 16 15 15 15 15 14 13 12 11 10 10 10 10 10 10 10 10 10 10 9 9 7 7 6 6 6 3 5 5 6 8 10 11 13 14 15 15 16
13 13 14 15 15 14 14 14 14 14 14 14 12 11 10 10 10 10 9 8 8 9 9 8 8 7 6 6 6 6 6 3 3 5 5 7 10 11 12 13 14 14 14
12 12 13 13 13 13 13 13 13 14 15 15 13 12 12 11 10 9 9 8 8 8 8 8 7 7 6 6 6 6 6 5 3 4 4 8 9 10 11 11 12 12 12
10 11 11 12 12 12 11 12 13 14 15 15 14 13 13 10 10 10 9 8 7 8 7 7 7 8 7 7 6 7 7 4 4 3 5 8 8 9 10 10 10 10 11
12 12 11 11 11 11 9 10 12 12 14 14 12 14 12 9 8 8 10 8 7 8 7 7 8 9 6 6 7 7 5 4 4 4 6 8 8 9 9 9 9 9 9
11 11 10 10 11 10 9 9 9 10 11 13 13 14 11 10 8 8 9 9 9 9 9 9 9 7 6 5 5 5 4 5 4 4 7 8 9 9 9 8 8 8 8
10 11 11 11 10 11 10 9 9 9 10 11 13 14 12 9 9 9 8 9 9 9 8 8 7 7 6 6 6 6 6 5 5 4 7 10 10 10 9 8 7 7 6
10 11 12 12 11 10 10 9 9 10 10 12 13 15 14 11 10 10 9 9 10 9 9 8 8 8 7 7 6 6 6 6 6 6 7 11 11 11 9 8 7 6 6
11 11 12 13 12 12 11 10 10 11 12 12 13 15 16 14 12 10 10 10 10 10 10 9 9 8 7 7 7 7 7 7 7 7 7 11 11 11 10 8 7 6 5
12 12 13 13 13 14 14 13 11 12 12 12 13 16 18 17 15 13 11 10 11 12 12 10 10 8 7 6 7 7 7 7 7 8 8 9 10 11 10 9 8 6 5
11 12 13 12 14 15 14 13 12 12 13 13 14 15 18 19 18 15 11 11 13 13 11 9 9 8 8 7 7 6 7 7 9 9 9 9 9 10 10 10 9 7 5
11 12 13 14 15 15 15 13 12 12 12 13 14 15 17 20 20 17 13 13 14 12 11 10 10 10 9 8 7 6 6 7 8 9 10 11 10 10 10 10 10 8 6
10 11 12 13 14 15 13 11 10 11 12 13 14 15 17 18 20 19 14 15 15 12 12 12 12 11 9 8 7 6 6 7 7 9 10 11 11 11 11 11 10 8 7
8 10 11 12 13 12 11 11 12 13 13 12 13 17 18 18 19 18 13 15 14 14 15 15 13 12 10 8 6 5 6 7 8 8 9 10 11 12 12 12 10 9 8
5 7 9 10 11 12 11 11 11 12 11 13 12 15 19 19 20 17 17 15 15 14 16 17 15 11 9 10 8 5 5 7 8 10 9 9 11 12 12 12 11 10 8
3 4 5 7 8 9 11 10 9 10 10 10 12 14 16 19 20 18 18 16 15 15 15 18 18 17 13 12 11 8 6 9 5 7 10 10 10 9 10 11 11 10 8
6 5 4 4 5 5 7 9 13 12 13 15 13 13 14 16 18 19 18 17 16 15 16 17 18 17 16 12 10 10 7 4 5 5 6 8 9 10 10 8 10 9 8
7 6 5 5 4 4 4 6 10 13 13 12 12 14 14 14 15 16 16 15 16 15 17 17 17 18 16 15 11 8 8 4 4 5 4 5 6 6 6 7 7 8 8
8 7 7 6 6 5 4 4 7 10 12 13 14 14 13 11 11 15 14 15 15 15 16 16 16 18 16 15 12 9 8 6 7 7 5 3 4 3 4 3 5 6 6
Wind_Direction
155 155 153 154 152 150 148 145 141 137 134 132 131 129 126 123 123 122 125 129 130 123 114 109 102 98 96 95 92 89 88 87 84 79 76 78 84 89 83 69 66 84 72
151 152 149 152 153 153 151 146 139 136 134 133 132 129 127 124 123 118 121 126 128 124 116 110 105 102 101 99 96 94 93 92 88 82 84 89 82 86 84 67 39 66 69
150 150 153 152 153 153 150 144 140 138 136 135 132 130 128 125 122 117 118 122 120 117 112 110 107 106 104 101 99 97 97 96 92 93 116 99 94 89 90 81 72 74 65
150 152 157 150 154 153 149 144 142 141 139 136 133 132 129 122 118 116 117 121 116 112 110 110 110 110 107 104 100 97 98 97 97 132 101 86 91 87 90 84 80 80 59
152 154 149 152 154 152 149 147 146 144 140 137 134 133 131 124 115 110 107 110 110 109 110 113 114 113 110 106 100 97 98 101 113 109 87 80 78 81 84 79 76 73 62
155 154 151 154 152 150 150 150 149 146 143 139 136 135 134 129 117 110 109 108 109 110 111 114 116 114 111 106 100 98 103 116 145 92 84 73 71 78 85 83 76 73 72
155 154 154 155 152 151 152 152 152 150 146 143 141 141 140 133 124 116 114 115 116 116 116 117 118 117 113 108 102 101 109 113 100 95 83 73 69 71 79 80 79 77 74
156 156 155 154 152 153 154 156 157 155 152 148 147 148 146 140 135 131 127 126 125 123 122 123 124 123 118 113 107 109 119 135 114 96 84 78 73 78 81 80 78 75 73
161 161 161 165 162 158 159 162 164 160 157 154 154 153 148 143 143 144 143 140 135 131 130 131 131 130 125 118 116 120 125 141 124 96 87 82 84 84 84 81 80 76 72
170 170 170 173 174 175 175 171 171 166 163 160 159 155 148 146 150 153 160 151 147 141 139 140 139 135 127 124 126 131 144 175 129 122 107 95 93 92 89 87 82 77 73
181 181 179 180 181 183 184 175 180 175 172 168 168 160 162 171 168 169 165 153 157 154 153 151 144 133 130 129 132 146 171 187 148 131 109 102 102 101 98 92 88 83 78
189 191 189 189 188 189 186 186 192 189 185 189 186 179 187 184 179 174 156 169 167 162 163 158 147 150 174 159 150 173 182 177 166 151 123 118 119 116 109 103 97 91 84
195 197 201 200 199 197 193 196 195 195 195 200 198 192 193 189 183 185 178 182 185 183 184 166 177 186 189 177 178 183 177 182 181 163 143 135 135 128 121 115 107 100 92
204 206 208 207 209 209 207 203 204 202 201 202 203 201 198 197 197 195 196 193 194 197 197 195 200 189 191 188 192 186 182 193 189 176 145 144 143 138 134 128 120 111 102
215 214 213 212 213 213 216 216 214 213 210 208 206 207 206 204 203 202 205 203 206 205 202 206 206 199 199 195 196 197 195 196 192 182 158 151 148 147 146 143 136 127 115
223 220 217 216 215 214 216 219 221 219 216 218 212 211 211 213 211 207 211 209 211 210 211 211 212 206 204 201 200 201 202 199 199 194 176 157 151 152 157 156 148 138 126
231 227 221 218 216 217 219 222 226 224 221 219 218 216 215 216 215 212 215 213 212 211 211 213 212 211 206 202 204 203 203 204 201 197 188 178 167 161 165 165 158 149 137
240 234 229 220 220 220 221 221 224 227 225 224 221 220 218 218 218 217 218 217 213 210 208 207 206 206 206 207 206 200 202 202 205 201 194 191 184 178 173 170 166 160 151
244 240 235 228 227 225 223 222 224 227 228 229 226 223 221 219 218 218 220 219 213 210 210 207 208 210 210 208 207 202 205 204 203 203 203 198 193 190 184 167 166 162 162
250 246 241 236 233 232 227 224 223 227 230 230 230 228 225 222 220 219 221 220 214 211 211 208 207 209 214 202 196 202 209 211 209 208 208 201 196 195 195 185 179 170 168
252 247 244 241 238 234 229 224 222 225 228 228 229 231 229 226 222 219 221 220 215 214 212 210 205 204 203 187 183 202 215 221 220 213 211 206 201 198 198 196 197 190 181
266 261 255 249 246 241 235 232 231 232 233 232 230 232 230 228 224 220 220 219 215 216 215 211 204 204 197 189 194 197 216 215 221 217 211 212 208 199 203 202 201 200 199
349 316 291 275 264 255 250 244 239 237 238 236 233 232 231 229 227 223 223 222 218 215 216 212 206 205 202 199 204 199 205 223 196 195 212 211 209 205 204 202 203 200 200
14 360 340 314 290 274 256 244 238 235 236 237 237 238 237 233 230 228 226 225 222 218 219 215 211 213 210 202 207 224 236 243 194 184 194 209 211 211 206 198 195 192 193
17 7 359 352 342 320 278 252 247 245 248 251 250 249 246 241 234 230 228 227 226 222 222 219 213 214 214 209 200 199 212 227 233 210 191 182 198 211 209 199 190 185 183
17 10 2 355 351 344 324 287 258 256 255 255 253 251 250 247 240 235 230 229 229 226 225 222 216 214 215 216 206 197 192 193 203 208 209 179 178 172 190 197 191 180 176
Height
1528 1530 1532 1534 1537 1539 1542 1544 1546 1547 1549 1550 1551 1551 1552 1552 1552 1552 1551 1551 1551 1552 1552 1552 1553 1553 1553 1552 1552 1552 1552 1552 1553 1553 1553 1553 1553 1553 1553 1553 1554 1555 1553
1528 1530 1532 1534 1537 1540 1542 1544 1546 1548 1549 1550 1551 1551 1552 1552 1552 1552 1552 1552 1552 1553 1553 1554 1554 1554 1554 1553 1553 1553 1553 1553 1553 1554 1554 1554 1554 1554 1554 1554 1554 1555 1555
1528 1530 1532 1535 1538 1540 1543 1545 1546 1548 1549 1550 1551 1552 1552 1552 1552 1552 1552 1552 1553 1554 1554 1555 1555 1555 1555 1554 1554 1554 1554 1554 1555 1555 1556 1557 1556 1556 1556 1556 1556 1556 1556
1528 1531 1533 1535 1538 1541 1543 1545 1547 1548 1550 1551 1551 1552 1552 1552 1553 1553 1553 1554 1554 1555 1556 1556 1556 1556 1556 1556 1555 1556 1556 1556 1557 1557 1559 1559 1559 1558 1558 1558 1557 1557 1557
1529 1532 1534 1536 1539 1541 1543 1545 1547 1549 1550 1551 1552 1552 1553 1553 1553 1554 1554 1555 1556 1556 1557 1557 1558 1558 1557 1557 1557 1557 1558 1558 1559 1559 1560 1560 1560 1559 1559 1559 1559 1559 1558
1530 1533 1534 1537 1539 1542 1544 1546 1547 1549 1550 1551 1552 1553 1553 1553 1554 1555 1555 1556 1557 1557 1558 1558 1559 1559 1559 1559 1559 1559 1560 1560 1561 1562 1562 1562 1562 1561 1560 1560 1560 1560 1559
1531 1534 1535 1537 1540 1542 1544 1546 1548 1549 1550 1551 1552 1553 1553 1554 1555 1555 1556 1557 1557 1558 1559 1559 1559 1560 1560 1560 1561 1561 1561 1562 1563 1563 1563 1563 1562 1562 1562 1561 1561 1561 1561
1532 1534 1536 1538 1540 1543 1545 1546 1548 1549 1550 1551 1552 1553 1554 1554 1555 1556 1556 1557 1558 1559 1559 1560 1560 1561 1561 1561 1562 1562 1563 1563 1564 1564 1564 1564 1563 1563 1563 1562 1562 1562 1561
1533 1534 1536 1538 1540 1543 1545 1546 1548 1549 1550 1551 1552 1553 1554 1555 1555 1556 1557 1557 1558 1559 1559 1560 1561 1561 1562 1562 1563 1563 1564 1564 1566 1565 1565 1564 1564 1563 1563 1563 1562 1562 1561
1532 1534 1536 1538 1541 1542 1544 1546 1547 1549 1550 1551 1552 1553 1554 1555 1555 1556 1557 1558 1558 1559 1559 1560 1561 1562 1562 1563 1563 1564 1564 1564 1566 1565 1566 1565 1564 1563 1563 1562 1562 1561 1561
1531 1533 1536 1538 1540 1542 1544 1545 1547 1548 1549 1551 1552 1553 1554 1555 1555 1556 1557 1558 1558 1559 1560 1560 1561 1562 1562 1563 1563 1564 1564 1565 1566 1566 1565 1564 1564 1563 1563 1562 1561 1560 1560
1530 1532 1534 1537 1539 1541 1543 1544 1546 1547 1548 1550 1551 1552 1553 1555 1555 1556 1556 1557 1558 1558 1559 1560 1560 1561 1562 1562 1563 1563 1564 1564 1565 1565 1564 1563 1563 1563 1562 1561 1560 1560 1559
1529 1531 1533 1535 1537 1539 1541 1543 1544 1546 1547 1548 1550 1551 1552 1553 1554 1555 1555 1556 1557 1558 1558 1559 1560 1561 1561 1562 1562 1563 1563 1564 1564 1564 1563 1562 1562 1561 1561 1560 1559 1559 1558
1528 1529 1531 1533 1535 1537 1539 1541 1542 1544 1545 1546 1547 1549 1550 1551 1552 1553 1554 1555 1556 1557 1557 1558 1559 1559 1560 1560 1561 1561 1561 1562 1562 1562 1561 1561 1561 1560 1559 1559 1558 1558 1557
1526 1528 1529 1531 1533 1535 1537 1538 1540 1541 1542 1544 1545 1546 1547 1548 1549 1551 1552 1553 1554 1555 1555 1556 1557 1557 1558 1558 1559 1559 1560 1560 1560 1560 1559 1559 1559 1558 1558 1558 1557 1557 1556
1525 1526 1528 1529 1531 1532 1534 1535 1537 1538 1539 1541 1541 1542 1544 1545 1546 1547 1549 1549 1550 1551 1553 1553 1554 1555 1555 1556 1556 1557 1557 1558 1558 1558 1558 1557 1557 1557 1556 1556 1556 1555 1555
1523 1524 1526 1527 1528 1530 1531 1532 1534 1535 1536 1537 1538 1539 1540 1541 1542 1543 1544 1545 1546 1548 1549 1550 1551 1552 1552 1553 1553 1554 1554 1555 1555 1556 1556 1555 1554 1554 1554 1554 1554 1554 1553
1519 1521 1522 1523 1525 1526 1527 1528 1530 1531 1532 1533 1534 1535 1536 1537 1538 1539 1540 1541 1542 1543 1544 1545 1547 1548 1548 1549 1550 1551 1551 1552 1552 1552 1552 1552 1552 1552 1552 1552 1552 1552 1551
1514 1516 1518 1519 1520 1522 1523 1524 1525 1526 1527 1528 1529 1530 1531 1532 1533 1534 1535 1536 1537 1538 1540 1541 1542 1544 1545 1545 1546 1547 1548 1548 1548 1549 1549 1549 1549 1549 1549 1548 1549 1549 1549
1509 1511 1512 1514 1516 1517 1518 1519 1519 1520 1521 1522 1523 1524 1526 1526 1527 1529 1529 1531 1532 1533 1534 1535 1537 1538 1540 1541 1542 1543 1543 1544 1544 1544 1545 1544 1545 1545 1545 1545 1545 1545 1545
1504 1505 1507 1508 1510 1512 1512 1513 1513 1514 1515 1516 1517 1519 1520 1521 1521 1522 1523 1525 1525 1526 1527 1529 1531 1533 1534 1536 1538 1538 1538 1539 1539 1539 1540 1540 1540 1540 1541 1541 1541 1541 1541
1498 1499 1500 1502 1504 1505 1506 1507 1507 1509 1509 1510 1511 1512 1513 1514 1515 1516 1517 1518 1518 1520 1521 1523 1524 1526 1527 1529 1532 1533 1534 1534 1532 1533 1533 1534 1535 1535 1535 1536 1537 1537 1537
1493 1494 1495 1496 1497 1498 1499 1500 1501 1502 1502 1503 1504 1504 1506 1507 1507 1508 1509 1510 1511 1512 1513 1515 1517 1518 1520 1522 1525 1527 1527 1527 1526 1526 1526 1527 1528 1529 1529 1530 1531 1531 1532
1490 1490 1491 1491 1492 1492 1493 1494 1494 1495 1495 1496 1497 1498 1499 1499 1500 1500 1501 1503 1504 1505 1506 1507 1509 1511 1513 1514 1516 1518 1520 1520 1521 1520 1520 1521 1522 1522 1523 1524 1525 1525 1526
1489 1488 1488 1488 1488 1488 1488 1488 1489 1489 1490 1491 1491 1491 1492 1492 1492 1493 1494 1495 1496 1497 1498 1500 1501 1503 1504 1506 1507 1509 1511 1512 1513 1515 1514 1514 1515 1516 1517 1518 1518 1519 1520
1488 1487 1486 1485 1485 1484 1484 1483 1483 1483 1484 1484 1484 1484 1484 1484 1485 1485 1486 1487 1488 1489 1490 1491 1493 1494 1496 1498 1499 1500 1502 1503 1504 1507 1508 1507 1508 1509 1510 1511 1512 1513 1514